FW4161 Weather Reports


time (UTC)temp
C
wind
direction
speed
KPH
gust
KPH
rain 1hr
cm
rain 24hr
cm
rain mn
cm
humidity
%
barometer
mb
20260510220017 19 0 1.6 11.3 0.00 0.03 0.03 71 1014.1
20260510213018 19 0 4.8 17.7 0.00 0.03 0.03 68 1014.1
20260510210017 20 0 4.8 20.9 0.00 0.08 0.03 66 1013.8
20260510203017 21 0 4.8 17.7 0.00 0.20 0.03 60 1013.5
20260510200017 23 270 4.8 19.3 0.00 0.20 0.03 55 1013.5
20260510193017 24 0 6.4 22.5 0.00 0.23 0.03 51 1013.4
20260510190017 25 0 6.4 25.7 0.00 0.23 0.03 53 1013.6
20260510183037 24 270 4.8 22.5 0.00 0.23 0.03 57 1013.6
20260510180017 23 0 4.8 17.7 0.00 0.23 0.03 57 1013.6
20260510173017 23 45 4.8 12.9 0.00 0.23 0.03 58 1013.5
20260510170017 23 248 3.2 11.3 0.00 0.23 0.03 62 1013.3
20260510163017 21 270 1.6 6.4 0.00 0.23 0.03 71 1013.5
20260510160016 19 293 1.6 8.0 0.00 0.23 0.03 77 1013.6
20260510153016 18 0.0 4.8 0.00 0.23 0.03 80 1014.1
20260510150016 16 180 1.6 6.4 0.00 0.23 0.03 85 1014.3
20260510143017 14 0.0 0.0 0.00 0.23 0.03 91 1014.3
20260510140016 13 0.0 1.6 0.00 0.23 0.03 95 1014.1
20260510133016 12 0.0 4.8 0.00 0.23 0.03 94 1014.1
20260510130016 11 0.0 3.2 0.00 0.23 0.03 94 1014.4
20260510123016 11 23 1.6 8.0 0.00 0.23 0.03 94 1013.7
20260510120016 11 0.0 0.0 0.00 0.23 0.03 94 1013.4
20260510113017 10 0.0 0.0 0.00 0.23 0.03 94 1013.4
20260510110016 10 0.0 0.0 0.00 0.23 0.03 94 1013.2
20260510103015 10 0.0 0.0 0.00 0.23 0.03 94 1012.6
20260510100157 10 0.0 0.0 0.03 0.23 0.03 93 1012.5
20260510093016 10 0.0 0.0 0.03 0.23 0.03 93 1012.4
20260510090016 11 45 1.6 9.7 0.00 0.20 0.00 93 1012.6
20260510083035 10 23 3.2 14.5 0.00 0.20 0.00 93 1012.8
20260510080016 10 0.0 3.2 0.00 0.20 0.00 92 1012.0
20260510073016 10 23 1.6 4.8 0.00 0.20 0.00 92 1011.9
20260510070016 10 0 3.2 8.0 0.00 0.20 0.00 92 1011.8
20260510063016 10 0.0 4.8 0.00 0.20 0.00 92 1011.8
20260510060017 10 0.0 0.0 0.00 0.20 0.00 92 1011.7
20260510053017 10 0.0 0.0 0.00 0.20 0.00 92 1011.9
20260510050017 9 0.0 0.0 0.00 0.20 0.00 91 1012.1
20260510043017 9 0.0 1.6 0.00 0.20 0.00 91 1012.1
20260510040017 9 0.0 1.6 0.00 0.20 0.20 91 1012.1
20260510033016 8 0.0 0.0 0.00 0.20 0.20 90 1011.8
20260510030036 9 0.0 0.0 0.00 0.20 0.20 89 1011.8
20260510023016 9 0.0 0.0 0.00 0.20 0.20 89 1011.6
20260510020016 10 0.0 0.0 0.00 0.20 0.20 89 1011.8
20260510013016 10 0.0 0.0 0.00 0.20 0.20 88 1011.8
20260510010016 11 0.0 0.0 0.00 0.20 0.20 88 1011.5
20260510003016 12 0.0 0.0 0.00 0.20 0.20 88 1011.0
20260510000017 12 0.0 0.0 0.00 0.20 0.20 87 1010.9
20260509233017 13 180 1.6 3.2 0.00 0.20 0.20 87 1010.9
20260509230034 13 180 1.6 6.4 0.00 0.20 0.20 86 1010.8
20260509223017 13 0.0 6.4 0.00 0.20 0.20 87 1011.1